Location: Shannon
(40.5500°S, 175.4167°E)
Time: 07:30:50
(UTC+00:00)

NPP - Pass Details

Date: 17 November 2025
Orbit: 825 x 828 km, 98.8° (Epoch: 14 December)

Event Time Altitude Azimuth Distance (km) Brightness Sun altitude
Exits shadow 13:45:29 50° 265° (W) 1,059 4.0 -25.8°
Drops below altitude 10° 13:50:23 10° 204° (SSW) 2,461 6.6 -25.3°
Sets 13:52:50 0° 199° (SSW) 3,402 7.5 -25.1°
